Weather History for South St. Paul, MN

Change the Weather History Date:

Friday, July 26, 2013

  Actual Average (KMSP) Record (KMSP)
Temperature  
Mean Temperature 66 °F 74 °F  
Max Temperature 72 °F 83 °F 100 °F (1955)
Min Temperature 58 °F 64 °F 45 °F (1962)
Degree Days  
Heating Degree Days 0 0  
Month to date heating degree days 0  
Since 1 June heating degree days 44  
Since 1 July heating degree days 0  
Cooling Degree Days 0 9  
Month to date cooling degree days 232  
Year to date cooling degree days 432  
Since 1 June cooling degree days 390  
Growing Degree Days 16 (Base 50)    
Moisture  
Dew Point 55 °F    
Average Humidity 64    
Maximum Humidity 83    
Minimum Humidity 52    
Precipitation  
Precipitation 0.03 in 0.14 in 2.44 in (1990)
Month to date precipitation 3.36  
Year to date precipitation 17.19  
Snow  
Snow 0.00 in 0.00 in 0.00 in ()
Month to date snowfall 0.0  
Since 1 June snowfall 0.0  
Since 1 July snowfall 0.0  
Snow Depth -    
Sea Level Pressure  
Sea Level Pressure 29.97 in    
Wind  
Wind Speed 10 mph (NW)    
Max Wind Speed 22 mph    
Max Gust Speed 29 mph    
Visibility 10 miles    
Events Rain    
T = Trace of Precipitation, MM = Missing Value Source: NWS Daily Summary

Daily Weather History Graph

Daily Weather History Graph

Search for Another Location

Airport:

Trip Planner

Search our weather history database for the weather conditions in past years. The results will help you decide how hot, cold, wet, or windy it might be!

Date:

Astronomy

Jul. 26, 2013 Rise Set
Actual Time 5:51 AM CDT 8:45 PM CDT
Civil Twilight 5:17 AM CDT 9:19 PM CDT
Nautical Twilight 4:33 AM CDT 10:02 PM CDT
Astronomical Twilight 3:41 AM CDT 10:54 PM CDT
Moon 10:43 PM CDT (7/26) 10:43 AM CDT (7/26)
Length of Visible Light 16h 02m
Length of Day
14h 53m
Waning Gibbous, 80% of the Moon is Illuminated
Jul 26
Waning Gibbous
Jul 29
Last Quarter
Aug 6
New
Aug 14
First Quarter
Aug 20
Full

Hourly Weather History & Observations

Time (CDT) Temp. Dew Point Humidity Pressure Visibility Wind Dir Wind Speed Gust Speed Precip Events Conditions
12:13 AM 73.6 °F 63.5 °F 71% 29.92 in 10.0 mi SW 8.1 mph - N/A   Mostly Cloudy
12:33 AM 73.0 °F 63.7 °F 72% 29.92 in 10.0 mi WSW 8.1 mph - N/A   Mostly Cloudy
12:53 AM 72.7 °F 63.5 °F 73% 29.92 in 10.0 mi WSW 8.1 mph - N/A   Scattered Clouds
1:13 AM 72.7 °F 63.5 °F 73% 29.92 in 10.0 mi WSW 4.6 mph - N/A   Mostly Cloudy
1:33 AM 72.5 °F 63.5 °F 73% 29.92 in 10.0 mi SW 10.4 mph - N/A   Overcast
1:53 AM 71.8 °F 63.5 °F 75% 29.91 in 10.0 mi SW 9.2 mph - N/A   Mostly Cloudy
2:13 AM 71.2 °F 63.5 °F 76% 29.91 in 10.0 mi WSW 8.1 mph - N/A   Mostly Cloudy
2:33 AM 71.1 °F 63.9 °F 78% 29.91 in 10.0 mi West 9.2 mph - N/A   Mostly Cloudy
2:53 AM 71.1 °F 63.5 °F 77% 29.91 in 10.0 mi WSW 13.8 mph 18.4 mph N/A   Mostly Cloudy
3:13 AM 70.7 °F 60.3 °F 69% 29.90 in 10.0 mi West 6.9 mph - N/A   Mostly Cloudy
3:33 AM 69.8 °F 61.0 °F 73% 29.90 in 10.0 mi West 8.1 mph - N/A   Clear
3:53 AM 69.1 °F 62.1 °F 78% 29.90 in 10.0 mi West 9.2 mph - N/A   Clear
4:13 AM 68.5 °F 62.8 °F 82% 29.90 in 10.0 mi West 8.1 mph - N/A   Clear
4:33 AM 68.4 °F 63.0 °F 83% 29.90 in 10.0 mi WNW 6.9 mph - N/A   Clear
4:53 AM 68.5 °F 62.1 °F 80% 29.90 in 10.0 mi NW 9.2 mph - N/A   Clear
5:13 AM 68.4 °F 60.1 °F 75% 29.90 in 10.0 mi NW 5.8 mph - N/A   Scattered Clouds
5:33 AM 67.6 °F 55.8 °F 66% 29.90 in 10.0 mi NW 6.9 mph - N/A   Scattered Clouds
5:53 AM 67.3 °F 53.1 °F 60% 29.91 in 10.0 mi NW 9.2 mph - N/A   Scattered Clouds
6:13 AM 67.3 °F 53.1 °F 60% 29.92 in 10.0 mi NW 6.9 mph - N/A   Mostly Cloudy
6:33 AM 66.6 °F 53.6 °F 63% 29.92 in 10.0 mi NW 5.8 mph - N/A   Mostly Cloudy
6:53 AM 67.1 °F 53.1 °F 61% 29.93 in 10.0 mi NNW 12.7 mph 16.1 mph N/A   Mostly Cloudy
7:13 AM 66.7 °F 53.1 °F 61% 29.93 in 10.0 mi NW 12.7 mph 19.6 mph N/A   Scattered Clouds
7:33 AM 67.1 °F 54.0 °F 63% 29.93 in 10.0 mi NNW 9.2 mph - N/A   Clear
7:53 AM 67.1 °F 54.1 °F 63% 29.94 in 10.0 mi NW 12.7 mph 18.4 mph N/A   Clear
8:13 AM 67.5 °F 54.3 °F 63% 29.94 in 10.0 mi NW 9.2 mph - N/A   Clear
8:33 AM 67.1 °F 53.8 °F 62% 29.95 in 10.0 mi NW 12.7 mph 20.7 mph N/A   Mostly Cloudy
8:53 AM 67.6 °F 52.9 °F 59% 29.95 in 10.0 mi NNW 13.8 mph 19.6 mph N/A   Scattered Clouds
9:13 AM 68.4 °F 53.6 °F 59% 29.95 in 10.0 mi NW 12.7 mph - N/A   Mostly Cloudy
9:33 AM 67.8 °F 51.8 °F 56% 29.95 in 10.0 mi NNW 15.0 mph 24.2 mph N/A   Overcast
9:53 AM 68.0 °F 51.8 °F 56% 29.95 in 10.0 mi WNW 12.7 mph 18.4 mph N/A   Overcast
10:13 AM 67.3 °F 52.2 °F 58% 29.96 in 10.0 mi WNW 10.4 mph - N/A   Overcast
10:33 AM 66.9 °F 51.8 °F 58% 29.95 in 10.0 mi NW 8.1 mph - N/A   Overcast
10:53 AM 66.9 °F 51.6 °F 58% 29.96 in 10.0 mi NW 10.4 mph - N/A   Mostly Cloudy
11:13 AM 66.9 °F 52.5 °F 60% 29.96 in 10.0 mi West 8.1 mph - N/A   Overcast
11:33 AM 68.5 °F 53.8 °F 59% 29.96 in 10.0 mi West 10.4 mph 18.4 mph N/A   Overcast
11:53 AM 66.2 °F 55.6 °F 69% 29.97 in 10.0 mi WNW 8.1 mph 16.1 mph N/A Rain Light Rain
12:13 PM 69.1 °F 54.3 °F 59% 29.97 in 10.0 mi West 11.5 mph 16.1 mph N/A   Overcast
12:33 PM 69.1 °F 54.0 °F 58% 29.97 in 10.0 mi West 12.7 mph 18.4 mph N/A   Mostly Cloudy
12:53 PM 70.0 °F 54.0 °F 57% 29.97 in 10.0 mi NW 13.8 mph 19.6 mph N/A   Mostly Cloudy
1:13 PM 69.4 °F 55.8 °F 62% 29.97 in 10.0 mi WNW 13.8 mph 17.3 mph N/A   Scattered Clouds
1:33 PM 72.1 °F 54.7 °F 54% 29.97 in 10.0 mi NNW 16.1 mph 19.6 mph N/A   Scattered Clouds
1:53 PM 68.0 °F 59.2 °F 73% 29.97 in 10.0 mi WNW 15.0 mph 19.6 mph 0.02 in   Mostly Cloudy
2:13 PM 69.6 °F 57.2 °F 65% 29.97 in 7.0 mi NNW 21.9 mph 27.6 mph N/A Rain Rain
2:33 PM 68.4 °F 58.3 °F 70% 29.97 in 10.0 mi NNW 17.3 mph 25.3 mph 0.01 in   Scattered Clouds
2:53 PM 68.0 °F 57.2 °F 68% 29.97 in 10.0 mi North 8.1 mph 11.5 mph 0.01 in   Mostly Cloudy
3:13 PM 70.2 °F 56.7 °F 62% 29.97 in 10.0 mi NNW 12.7 mph 19.6 mph N/A   Mostly Cloudy
3:33 PM 70.2 °F 55.4 °F 59% 29.97 in 10.0 mi NNW 13.8 mph - N/A   Mostly Cloudy
3:53 PM 69.1 °F 54.3 °F 59% 29.98 in 10.0 mi NW 15.0 mph 21.9 mph N/A   Overcast
4:13 PM 71.4 °F 52.9 °F 52% 29.98 in 10.0 mi NNW 17.3 mph 26.5 mph N/A   Mostly Cloudy
4:33 PM 69.8 °F 52.7 °F 54% 29.99 in 10.0 mi NNW 18.4 mph 24.2 mph N/A   Overcast
4:53 PM 69.6 °F 52.5 °F 54% 30.01 in 10.0 mi NW 17.3 mph 25.3 mph N/A   Overcast
5:13 PM 68.0 °F 53.8 °F 60% 30.02 in 10.0 mi North 16.1 mph 27.6 mph N/A   Overcast
5:33 PM 67.1 °F 52.0 °F 58% 30.03 in 10.0 mi North 15.0 mph 25.3 mph N/A   Overcast
5:53 PM 65.8 °F 51.6 °F 60% 30.03 in 10.0 mi North 15.0 mph 28.8 mph N/A   Overcast
6:13 PM 66.6 °F 51.6 °F 59% 30.04 in 10.0 mi North 8.1 mph 18.4 mph N/A   Overcast
6:33 PM 66.7 °F 52.3 °F 60% 30.04 in 10.0 mi North 8.1 mph 19.6 mph N/A   Overcast
6:53 PM 66.2 °F 50.2 °F 56% 30.04 in 10.0 mi North 12.7 mph 19.6 mph N/A   Overcast
7:13 PM 65.5 °F 50.2 °F 58% 30.04 in 10.0 mi North 10.4 mph - N/A   Mostly Cloudy
7:33 PM 65.3 °F 50.0 °F 58% 30.05 in 10.0 mi North 12.7 mph 21.9 mph N/A   Overcast
7:53 PM 63.0 °F 52.2 °F 68% 30.06 in 10.0 mi North 13.8 mph 18.4 mph N/A   Overcast
8:13 PM 62.6 °F 51.4 °F 67% 30.06 in 10.0 mi North 11.5 mph 18.4 mph N/A   Overcast
8:33 PM 62.6 °F 50.9 °F 66% 30.06 in 10.0 mi North 10.4 mph 20.7 mph N/A   Overcast
8:53 PM 61.9 °F 51.1 °F 68% 30.06 in 10.0 mi North 11.5 mph - N/A   Overcast
9:13 PM 62.1 °F 50.5 °F 66% 30.06 in 10.0 mi North 11.5 mph - N/A   Overcast
9:33 PM 62.1 °F 47.8 °F 60% 30.07 in 10.0 mi North 17.3 mph 21.9 mph N/A   Overcast
9:53 PM 61.7 °F 47.7 °F 60% 30.07 in 10.0 mi North 15.0 mph 21.9 mph N/A   Overcast
10:13 PM 61.7 °F 46.8 °F 58% 30.07 in 10.0 mi NNE 9.2 mph 17.3 mph N/A   Overcast
10:33 PM 60.8 °F 46.0 °F 58% 30.08 in 10.0 mi NNE 11.5 mph 17.3 mph N/A   Scattered Clouds
10:53 PM 59.9 °F 45.5 °F 59% 30.08 in 10.0 mi North 11.5 mph 19.6 mph N/A   Scattered Clouds
11:13 PM 59.4 °F 46.2 °F 62% 30.08 in 10.0 mi North 10.4 mph 17.3 mph N/A   Scattered Clouds
11:33 PM 58.5 °F 46.0 °F 63% 30.08 in 10.0 mi North 8.1 mph 16.1 mph N/A   Scattered Clouds
11:53 PM 58.1 °F 45.3 °F 62% 30.08 in 10.0 mi North 11.5 mph 16.1 mph N/A   Clear